This is the latest recevied weather packets stored in our database for station/object KO4LCK. If no packets are shown the sender has not sent any weather packets the latest 10 day(s).
| Time | Temp. | Humidity | Pressure | Rain* | Wind** | Luminosity | Snow |
|---|---|---|---|---|---|---|---|
| 1788206388 | 32.78° C | 51% | 1020.4 hPa | 0 mm | - | 109 W/m² | - |
| 1788206084 | 32.22° C | 53% | 1020.4 hPa | 0 mm | - | 87 W/m² | - |
| 1788205786 | 32.78° C | 51% | 1020.6 hPa | 0 mm | - | 82 W/m² | - |
| 1788205474 | 33.89° C | 49% | 1020.5 hPa | 0 mm | - | 94 W/m² | - |
| 1788205173 | 34.44° C | 47% | 1020.6 hPa | 0 mm | - | 118 W/m² | - |
| 1788204869 | 35° C | 48% | 1020.5 hPa | 0 mm | - | 203 W/m² | - |
| 1788204564 | 35° C | 47% | 1020.5 hPa | 0 mm | - | 751 W/m² | - |
| 1788204259 | 34.44° C | 45% | 1020.8 hPa | 0 mm | - | 187 W/m² | - |
| 1788203954 | 33.89° C | 46% | 1020.7 hPa | 0 mm | - | 793 W/m² | - |
| 1788203650 | 33.89° C | 48% | 1020.8 hPa | 0 mm | - | 774 W/m² | - |
| 1788203346 | 33.89° C | 49% | 1020.8 hPa | 0 mm | - | 770 W/m² | - |
| 1788203046 | 35.56° C | 47% | 1020.9 hPa | 0 mm | - | 767 W/m² | - |
| 1788202745 | 35° C | 49% | 1020.8 hPa | 0 mm | - | 764 W/m² | - |
| 1788202441 | 34.44° C | 49% | 1020.9 hPa | 0 mm | - | 756 W/m² | - |
| 1788202140 | 33.33° C | 50% | 1021.1 hPa | 0 mm | - | 767 W/m² | - |
| 1788201835 | 32.78° C | 51% | 1021 hPa | 0 mm | - | 772 W/m² | - |
| 1788201531 | 32.22° C | 53% | 1021.3 hPa | 0 mm | - | 440 W/m² | - |
| 1788201230 | 32.22° C | 53% | 1021.5 hPa | 0 mm | - | 221 W/m² | - |
| 1788200930 | 33.33° C | 51% | 1021.4 hPa | 0 mm | - | 193 W/m² | - |
| 1788200625 | 35° C | 49% | 1021.5 hPa | 0 mm | - | 203 W/m² | - |
| 1788200320 | 35° C | 47% | 1021.5 hPa | 0 mm | - | 466 W/m² | - |
| 1788200016 | 35° C | 48% | 1021.4 hPa | 0 mm | - | 865 W/m² | - |
| 1788199710 | 34.44° C | 49% | 1021.4 hPa | 0 mm | - | 831 W/m² | - |
| 1788199405 | 34.44° C | 50% | 1021.7 hPa | 0 mm | - | 194 W/m² | - |
| 1788199104 | 35° C | 49% | 1021.7 hPa | 0 mm | - | 196 W/m² | - |
* Rain latest hour (hover to see other rain measurements)
** Current wind speed in m/s (hover to see current wind gust speed)